Year,Month,Day,Hour,Minute,Value (Times are PST for windspeed in km/hr)
2019,01,07,00,00,1.30
2019,01,07,00,01,0.00
2019,01,07,00,02,1.40
2019,01,07,00,03,1.40
2019,01,07,00,04,2.40
2019,01,07,00,05,5.50
2019,01,07,00,06,4.20
2019,01,07,00,07,5.80
2019,01,07,00,08,2.00
2019,01,07,00,09,3.40
2019,01,07,00,10,5.50
2019,01,07,00,11,1.90
2019,01,07,00,12,0.10
2019,01,07,00,13,0.10
2019,01,07,00,14,0.60
2019,01,07,00,15,0.80
2019,01,07,00,16,2.60
2019,01,07,00,17,2.80
2019,01,07,00,18,5.80
2019,01,07,00,19,1.60
2019,01,07,00,20,3.60
2019,01,07,00,21,4.40
2019,01,07,00,22,7.20
2019,01,07,00,23,4.50
2019,01,07,00,24,2.00
2019,01,07,00,25,4.90
2019,01,07,00,26,9.60
2019,01,07,00,27,4.30
2019,01,07,00,28,3.90
2019,01,07,00,29,5.10
2019,01,07,00,30,6.80
2019,01,07,00,31,4.30
2019,01,07,00,32,3.60
2019,01,07,00,33,0.70
2019,01,07,00,34,2.30
2019,01,07,00,35,2.80
2019,01,07,00,36,2.00
2019,01,07,00,37,0.20
2019,01,07,00,38,0.10
2019,01,07,00,39,0.10
2019,01,07,00,40,1.50
2019,01,07,00,41,1.30
2019,01,07,00,42,0.70
2019,01,07,00,43,2.80
2019,01,07,00,44,2.70
2019,01,07,00,45,1.50
2019,01,07,00,46,4.00
2019,01,07,00,47,6.70
2019,01,07,00,48,1.70
2019,01,07,00,49,1.10
2019,01,07,00,50,5.30
2019,01,07,00,51,2.80
2019,01,07,00,52,2.00
2019,01,07,00,53,4.10
2019,01,07,00,54,0.40
2019,01,07,00,55,0.20
2019,01,07,00,56,2.90
2019,01,07,00,57,0.50
2019,01,07,00,58,5.30
2019,01,07,00,59,3.20
2019,01,07,01,00,1.60
2019,01,07,01,01,5.60
2019,01,07,01,02,4.00
2019,01,07,01,03,3.10
2019,01,07,01,04,5.10
2019,01,07,01,05,3.70
2019,01,07,01,06,2.90
2019,01,07,01,07,9.90
2019,01,07,01,08,3.80
2019,01,07,01,09,3.90
2019,01,07,01,10,4.90
2019,01,07,01,11,4.60
2019,01,07,01,12,5.30
2019,01,07,01,13,5.20
2019,01,07,01,14,5.70
2019,01,07,01,15,8.80
2019,01,07,01,16,6.20
2019,01,07,01,17,2.40
2019,01,07,01,18,4.30
2019,01,07,01,19,2.10
2019,01,07,01,20,0.90
2019,01,07,01,21,3.20
2019,01,07,01,22,1.40
2019,01,07,01,23,6.90
2019,01,07,01,24,3.80
2019,01,07,01,25,3.10
2019,01,07,01,26,3.50
2019,01,07,01,27,6.10
2019,01,07,01,28,7.20
2019,01,07,01,29,6.40
2019,01,07,01,30,6.90
2019,01,07,01,31,5.30
2019,01,07,01,32,3.80
2019,01,07,01,33,5.20
2019,01,07,01,34,5.40
2019,01,07,01,35,6.00
2019,01,07,01,36,7.20
2019,01,07,01,37,13.70
2019,01,07,01,38,9.20
2019,01,07,01,39,8.90
2019,01,07,01,40,7.50
2019,01,07,01,41,7.00
2019,01,07,01,42,8.20
2019,01,07,01,43,8.10
2019,01,07,01,44,8.50
2019,01,07,01,45,6.00
2019,01,07,01,46,5.80
2019,01,07,01,47,6.70
2019,01,07,01,48,9.00
2019,01,07,01,49,8.20
2019,01,07,01,50,6.80
2019,01,07,01,51,5.40
2019,01,07,01,52,9.50
2019,01,07,01,53,9.00
2019,01,07,01,54,8.30
2019,01,07,01,55,6.10
2019,01,07,01,56,7.90
2019,01,07,01,57,4.80
2019,01,07,01,58,4.70
2019,01,07,01,59,5.30
2019,01,07,02,00,4.20
2019,01,07,02,01,5.50
2019,01,07,02,02,6.00
2019,01,07,02,03,4.60
2019,01,07,02,04,5.50
2019,01,07,02,05,5.80
2019,01,07,02,06,7.60
2019,01,07,02,07,5.50
2019,01,07,02,08,4.40
2019,01,07,02,09,5.20
2019,01,07,02,10,3.30
2019,01,07,02,11,5.30
2019,01,07,02,12,4.80
2019,01,07,02,13,5.30
2019,01,07,02,14,4.70
2019,01,07,02,15,6.40
2019,01,07,02,16,3.20
2019,01,07,02,17,4.90
2019,01,07,02,18,2.70
2019,01,07,02,19,1.50
2019,01,07,02,20,1.90
2019,01,07,02,21,1.70
2019,01,07,02,22,1.00
2019,01,07,02,23,3.30
2019,01,07,02,24,6.60
2019,01,07,02,25,0.90
2019,01,07,02,26,4.30
2019,01,07,02,27,4.40
2019,01,07,02,28,1.00
2019,01,07,02,29,0.50
2019,01,07,02,30,1.50
2019,01,07,02,31,4.30
2019,01,07,02,32,4.10
2019,01,07,02,33,4.40
2019,01,07,02,34,3.80
2019,01,07,02,35,5.80
2019,01,07,02,36,3.40
2019,01,07,02,37,2.80
2019,01,07,02,38,5.60
2019,01,07,02,39,6.40
2019,01,07,02,40,4.90
2019,01,07,02,41,4.10
2019,01,07,02,42,5.30
2019,01,07,02,43,4.70
2019,01,07,02,44,3.10
2019,01,07,02,45,4.30
2019,01,07,02,46,8.60
2019,01,07,02,47,7.30
2019,01,07,02,48,6.40
2019,01,07,02,49,6.00
2019,01,07,02,50,3.30
2019,01,07,02,51,4.00
2019,01,07,02,52,9.30
2019,01,07,02,53,7.30
2019,01,07,02,54,6.00
2019,01,07,02,55,6.80
2019,01,07,02,56,6.80
2019,01,07,02,57,0.80
2019,01,07,02,58,2.50
2019,01,07,02,59,4.30
2019,01,07,03,00,10.80
2019,01,07,03,01,5.60
2019,01,07,03,02,7.20
2019,01,07,03,03,7.10
2019,01,07,03,04,7.60
2019,01,07,03,05,6.10
2019,01,07,03,06,6.30
2019,01,07,03,07,7.60
2019,01,07,03,08,3.20
2019,01,07,03,09,6.20
2019,01,07,03,10,8.10
2019,01,07,03,11,9.50
2019,01,07,03,12,5.60
2019,01,07,03,13,7.50
2019,01,07,03,14,14.20
2019,01,07,03,15,8.80
2019,01,07,03,16,7.80
2019,01,07,03,17,8.10
2019,01,07,03,18,8.30
2019,01,07,03,19,6.00
2019,01,07,03,20,5.90
2019,01,07,03,21,6.30
2019,01,07,03,22,9.10
2019,01,07,03,23,10.90
2019,01,07,03,24,4.80
2019,01,07,03,25,6.40
2019,01,07,03,26,11.20
2019,01,07,03,27,5.10
2019,01,07,03,28,4.30
2019,01,07,03,29,2.20
2019,01,07,03,30,4.10
2019,01,07,03,31,8.00
2019,01,07,03,32,4.60
2019,01,07,03,33,5.40
2019,01,07,03,34,7.70
2019,01,07,03,35,2.50
2019,01,07,03,36,2.80
2019,01,07,03,37,16.10
2019,01,07,03,38,7.10
2019,01,07,03,39,6.10
2019,01,07,03,40,4.90
2019,01,07,03,41,2.50
2019,01,07,03,42,0.20
2019,01,07,03,43,4.10
2019,01,07,03,44,6.70
2019,01,07,03,45,4.70
2019,01,07,03,46,5.60
2019,01,07,03,47,7.10
2019,01,07,03,48,4.30
2019,01,07,03,49,4.40
2019,01,07,03,50,9.10
2019,01,07,03,51,5.10
2019,01,07,03,52,1.80
2019,01,07,03,53,4.50
2019,01,07,03,54,4.40
2019,01,07,03,55,2.30
2019,01,07,03,56,5.20
2019,01,07,03,57,7.00
2019,01,07,03,58,2.10
2019,01,07,03,59,3.10
2019,01,07,04,00,1.50
2019,01,07,04,01,2.70
2019,01,07,04,02,6.10
2019,01,07,04,03,7.00
2019,01,07,04,04,5.20
2019,01,07,04,05,5.20
2019,01,07,04,06,2.40
2019,01,07,04,07,5.00
2019,01,07,04,08,4.60
2019,01,07,04,09,7.20
2019,01,07,04,10,4.90
2019,01,07,04,11,4.80
2019,01,07,04,12,9.80
2019,01,07,04,13,7.60
2019,01,07,04,14,6.50
2019,01,07,04,15,3.00
2019,01,07,04,16,14.80
2019,01,07,04,17,8.50
2019,01,07,04,18,2.70
2019,01,07,04,19,0.10
2019,01,07,04,20,8.60
2019,01,07,04,21,7.30
2019,01,07,04,22,7.50
2019,01,07,04,23,8.90
2019,01,07,04,24,3.90
2019,01,07,04,25,4.80
2019,01,07,04,26,4.70
2019,01,07,04,27,2.40
2019,01,07,04,28,0.30
2019,01,07,04,29,2.70
2019,01,07,04,30,8.30
2019,01,07,04,31,7.10
2019,01,07,04,32,2.40
2019,01,07,04,33,1.90
2019,01,07,04,34,3.90
2019,01,07,04,35,3.70
2019,01,07,04,36,5.20
2019,01,07,04,37,9.30
2019,01,07,04,38,5.40
2019,01,07,04,39,5.50
2019,01,07,04,40,6.90
2019,01,07,04,41,6.30
2019,01,07,04,42,4.00
2019,01,07,04,43,6.20
2019,01,07,04,44,4.30
2019,01,07,04,45,3.30
2019,01,07,04,46,2.70
2019,01,07,04,47,5.10
2019,01,07,04,48,3.70
2019,01,07,04,49,5.80
2019,01,07,04,50,9.40
2019,01,07,04,51,5.20
2019,01,07,04,52,2.90
2019,01,07,04,53,3.00
2019,01,07,04,54,6.80
2019,01,07,04,55,5.60
2019,01,07,04,56,0.90
2019,01,07,04,57,1.90
2019,01,07,04,58,4.10
2019,01,07,04,59,6.10
2019,01,07,05,00,5.30
2019,01,07,05,01,0.80
2019,01,07,05,02,3.90
2019,01,07,05,03,3.10
2019,01,07,05,04,2.60
2019,01,07,05,05,7.20
2019,01,07,05,06,12.10
2019,01,07,05,07,6.80
2019,01,07,05,08,3.40
2019,01,07,05,09,9.30
2019,01,07,05,10,3.40
2019,01,07,05,11,0.80
2019,01,07,05,12,7.00
2019,01,07,05,13,4.80
2019,01,07,05,14,3.80
2019,01,07,05,15,0.70
2019,01,07,05,16,1.40
2019,01,07,05,17,1.40
2019,01,07,05,18,5.20
2019,01,07,05,19,4.50
2019,01,07,05,20,3.10
2019,01,07,05,21,4.70
2019,01,07,05,22,3.20
2019,01,07,05,23,0.20
2019,01,07,05,24,0.00
2019,01,07,05,25,2.40
2019,01,07,05,26,3.10
2019,01,07,05,27,2.50
2019,01,07,05,28,0.40
2019,01,07,05,29,5.50
2019,01,07,05,30,2.90
2019,01,07,05,31,0.50
2019,01,07,05,32,1.30
2019,01,07,05,33,1.10
2019,01,07,05,34,0.00
2019,01,07,05,35,1.00
2019,01,07,05,36,0.10
2019,01,07,05,37,0.20
2019,01,07,05,38,0.00
2019,01,07,05,39,0.20
2019,01,07,05,40,1.20
2019,01,07,05,41,1.50
2019,01,07,05,42,0.30
2019,01,07,05,43,0.20
2019,01,07,05,44,0.00
2019,01,07,05,45,0.00
2019,01,07,05,46,0.10
2019,01,07,05,47,0.00
2019,01,07,05,48,0.00
2019,01,07,05,49,0.00
2019,01,07,05,50,0.00
2019,01,07,05,51,2.40
2019,01,07,05,52,3.50
2019,01,07,05,53,3.30
2019,01,07,05,54,1.70
2019,01,07,05,55,0.30
2019,01,07,05,56,0.00
2019,01,07,05,57,0.00
2019,01,07,05,58,0.90
2019,01,07,05,59,1.30
2019,01,07,06,00,1.40
2019,01,07,06,01,0.00
2019,01,07,06,02,1.30
2019,01,07,06,03,2.30
2019,01,07,06,04,2.00
2019,01,07,06,05,1.90
2019,01,07,06,06,1.50
2019,01,07,06,07,0.00
2019,01,07,06,08,0.40
2019,01,07,06,09,0.00
2019,01,07,06,10,0.40
2019,01,07,06,11,2.40
2019,01,07,06,12,6.60
2019,01,07,06,13,2.90
2019,01,07,06,14,4.50
2019,01,07,06,15,4.90
2019,01,07,06,16,2.30
2019,01,07,06,17,1.00
2019,01,07,06,18,0.00
2019,01,07,06,19,0.10
2019,01,07,06,20,0.20
2019,01,07,06,21,2.40
2019,01,07,06,22,6.70
2019,01,07,06,23,3.70
2019,01,07,06,24,3.00
2019,01,07,06,25,0.10
2019,01,07,06,26,0.10
2019,01,07,06,27,0.00
2019,01,07,06,28,0.20
2019,01,07,06,29,0.40
2019,01,07,06,30,0.30
2019,01,07,06,31,6.00
2019,01,07,06,32,6.20
2019,01,07,06,33,3.90
2019,01,07,06,34,5.30
2019,01,07,06,35,1.70
2019,01,07,06,36,0.10
2019,01,07,06,37,1.70
2019,01,07,06,38,6.00
2019,01,07,06,39,2.10
2019,01,07,06,40,1.80
2019,01,07,06,41,2.40
2019,01,07,06,42,0.40
2019,01,07,06,43,0.20
2019,01,07,06,44,0.50
2019,01,07,06,45,3.80
2019,01,07,06,46,6.10
2019,01,07,06,47,1.70
2019,01,07,06,48,0.00
2019,01,07,06,49,1.30
2019,01,07,06,50,1.40
2019,01,07,06,51,0.20
2019,01,07,06,52,0.00
2019,01,07,06,53,0.00
2019,01,07,06,54,0.00
2019,01,07,06,55,0.00
2019,01,07,06,56,3.10
2019,01,07,06,57,2.10
2019,01,07,06,58,2.30
2019,01,07,06,59,3.10
2019,01,07,07,00,5.90
2019,01,07,07,01,2.00
2019,01,07,07,02,2.50
2019,01,07,07,03,0.30
2019,01,07,07,04,1.40
2019,01,07,07,05,0.10
2019,01,07,07,06,0.00
2019,01,07,07,07,0.00
2019,01,07,07,08,1.50
2019,01,07,07,09,0.90
2019,01,07,07,10,1.80
2019,01,07,07,11,0.00
2019,01,07,07,12,0.10
2019,01,07,07,13,0.10
2019,01,07,07,14,0.00
2019,01,07,07,15,0.00
2019,01,07,07,16,0.00
2019,01,07,07,17,0.10
2019,01,07,07,18,0.00
2019,01,07,07,19,0.00
2019,01,07,07,20,0.10
2019,01,07,07,21,0.00
2019,01,07,07,22,0.00
2019,01,07,07,23,0.00
2019,01,07,07,24,0.00
2019,01,07,07,25,0.50
2019,01,07,07,26,0.00
2019,01,07,07,27,0.10
2019,01,07,07,28,0.00
2019,01,07,07,29,1.80
2019,01,07,07,30,2.30
2019,01,07,07,31,0.60
2019,01,07,07,32,0.20
2019,01,07,07,33,0.10
2019,01,07,07,34,0.00
2019,01,07,07,35,0.00
2019,01,07,07,36,0.00
2019,01,07,07,37,0.00
2019,01,07,07,38,0.10
2019,01,07,07,39,0.00
2019,01,07,07,40,0.00
2019,01,07,07,41,0.00
2019,01,07,07,42,0.00
2019,01,07,07,43,0.00
2019,01,07,07,44,0.00
2019,01,07,07,45,0.00
2019,01,07,07,46,0.00
2019,01,07,07,47,0.00
2019,01,07,07,48,0.00
2019,01,07,07,49,0.00
2019,01,07,07,50,0.00
2019,01,07,07,51,0.00
2019,01,07,07,52,0.00
2019,01,07,07,53,0.00
2019,01,07,07,54,0.00
2019,01,07,07,55,0.50
2019,01,07,07,56,0.30
2019,01,07,07,57,0.00
2019,01,07,07,58,0.00
2019,01,07,07,59,0.00
2019,01,07,08,00,0.00
2019,01,07,08,01,0.00
2019,01,07,08,02,0.00
2019,01,07,08,03,0.00
2019,01,07,08,04,0.00
2019,01,07,08,05,0.00
2019,01,07,08,06,0.00
2019,01,07,08,07,0.10
2019,01,07,08,08,0.00
2019,01,07,08,09,0.00
2019,01,07,08,10,0.00
2019,01,07,08,11,0.00
2019,01,07,08,12,0.00
2019,01,07,08,13,0.00
2019,01,07,08,14,0.10
2019,01,07,08,15,0.00
2019,01,07,08,16,0.90
2019,01,07,08,17,0.60
2019,01,07,08,18,0.00
2019,01,07,08,19,0.00
2019,01,07,08,20,0.00
2019,01,07,08,21,0.00
2019,01,07,08,22,0.00
2019,01,07,08,23,0.00
2019,01,07,08,24,0.00
2019,01,07,08,25,0.20
2019,01,07,08,26,1.10
2019,01,07,08,27,1.10
2019,01,07,08,28,0.00
2019,01,07,08,29,0.00
2019,01,07,08,30,0.00
2019,01,07,08,31,0.00
2019,01,07,08,32,0.00
2019,01,07,08,33,0.50
2019,01,07,08,34,0.00
2019,01,07,08,35,0.00
2019,01,07,08,36,0.00
2019,01,07,08,37,0.00
2019,01,07,08,38,0.00
2019,01,07,08,39,0.00
2019,01,07,08,40,1.70
2019,01,07,08,41,0.20
2019,01,07,08,42,0.70
2019,01,07,08,43,0.40
2019,01,07,08,44,0.40
2019,01,07,08,45,0.00
2019,01,07,08,46,0.00
2019,01,07,08,47,0.00
2019,01,07,08,48,0.60
2019,01,07,08,49,1.30
2019,01,07,08,50,0.00
2019,01,07,08,51,0.50
2019,01,07,08,52,0.00
2019,01,07,08,53,0.00
2019,01,07,08,54,0.00
2019,01,07,08,55,0.00
2019,01,07,08,56,0.00
2019,01,07,08,57,0.00
2019,01,07,08,58,0.10
2019,01,07,08,59,0.00
2019,01,07,09,00,0.00
2019,01,07,09,01,0.00
2019,01,07,09,02,0.00
2019,01,07,09,03,0.00
2019,01,07,09,04,0.00
2019,01,07,09,05,0.00
2019,01,07,09,06,0.00
2019,01,07,09,07,0.00
2019,01,07,09,08,0.00
2019,01,07,09,09,1.00
2019,01,07,09,10,1.20
2019,01,07,09,11,0.10
2019,01,07,09,12,1.00
2019,01,07,09,13,0.00
2019,01,07,09,14,0.00
2019,01,07,09,15,0.00
2019,01,07,09,16,0.00
2019,01,07,09,17,0.00
2019,01,07,09,18,0.00
2019,01,07,09,19,0.00
2019,01,07,09,20,0.00
2019,01,07,09,21,0.00
2019,01,07,09,22,0.00
2019,01,07,09,23,0.10
2019,01,07,09,24,0.00
2019,01,07,09,25,0.00
2019,01,07,09,26,0.00
2019,01,07,09,27,0.00
2019,01,07,09,28,0.00
2019,01,07,09,29,1.50
2019,01,07,09,30,3.40
2019,01,07,09,31,1.80
2019,01,07,09,32,1.00
2019,01,07,09,33,0.00
2019,01,07,09,34,0.10
2019,01,07,09,35,0.30
2019,01,07,09,36,0.60
2019,01,07,09,37,0.10
2019,01,07,09,38,0.60
2019,01,07,09,39,0.20
2019,01,07,09,40,0.00
2019,01,07,09,41,0.00
2019,01,07,09,42,0.00
2019,01,07,09,43,0.10
2019,01,07,09,44,0.00
2019,01,07,09,45,0.00
2019,01,07,09,46,0.00
2019,01,07,09,47,0.00
2019,01,07,09,48,0.00
2019,01,07,09,49,0.00
2019,01,07,09,50,0.00
2019,01,07,09,51,0.00
2019,01,07,09,52,0.00
2019,01,07,09,53,0.00
2019,01,07,09,54,0.00
2019,01,07,09,55,0.20
2019,01,07,09,56,0.60
2019,01,07,09,57,0.00
2019,01,07,09,58,0.00
2019,01,07,09,59,0.00
2019,01,07,10,00,0.00
2019,01,07,10,01,0.00
2019,01,07,10,02,0.00
2019,01,07,10,03,0.00
2019,01,07,10,04,0.00
2019,01,07,10,05,0.00
2019,01,07,10,06,0.10
2019,01,07,10,07,0.20
2019,01,07,10,08,0.00
2019,01,07,10,09,0.10
2019,01,07,10,10,0.00
2019,01,07,10,11,0.00
2019,01,07,10,12,0.00
2019,01,07,10,13,0.50
2019,01,07,10,14,0.10
2019,01,07,10,15,0.00
2019,01,07,10,16,0.00
2019,01,07,10,17,0.00
2019,01,07,10,18,1.00
2019,01,07,10,19,0.00
2019,01,07,10,20,0.00
2019,01,07,10,21,0.60
2019,01,07,10,22,0.00
2019,01,07,10,23,0.20
2019,01,07,10,24,0.00
2019,01,07,10,25,0.00
2019,01,07,10,26,1.10
2019,01,07,10,27,0.20
2019,01,07,10,28,1.20
2019,01,07,10,29,1.90
2019,01,07,10,30,0.60
2019,01,07,10,31,1.90
2019,01,07,10,32,0.30
2019,01,07,10,33,0.00
2019,01,07,10,34,0.80
2019,01,07,10,35,0.60
2019,01,07,10,36,0.70
2019,01,07,10,37,0.40
2019,01,07,10,38,0.00
2019,01,07,10,39,0.00
2019,01,07,10,40,0.00
2019,01,07,10,41,0.00
2019,01,07,10,42,0.00
2019,01,07,10,43,0.20
2019,01,07,10,44,0.50
2019,01,07,10,45,0.00
2019,01,07,10,46,0.00
2019,01,07,10,47,0.00
2019,01,07,10,48,0.70
2019,01,07,10,49,2.10
2019,01,07,10,50,0.10
2019,01,07,10,51,1.10
2019,01,07,10,52,3.50
2019,01,07,10,53,5.00
2019,01,07,10,54,3.80
2019,01,07,10,55,0.20
2019,01,07,10,56,0.00
2019,01,07,10,57,2.70
2019,01,07,10,58,2.70
2019,01,07,10,59,1.00
2019,01,07,11,00,0.80
2019,01,07,11,01,2.30
2019,01,07,11,02,0.20
2019,01,07,11,03,0.00
2019,01,07,11,04,0.00
2019,01,07,11,05,3.00
2019,01,07,11,06,2.90
2019,01,07,11,07,0.10
2019,01,07,11,08,0.00
2019,01,07,11,09,0.50
2019,01,07,11,10,0.20
2019,01,07,11,11,0.00
2019,01,07,11,12,0.00
2019,01,07,11,13,0.00
2019,01,07,11,14,0.00
2019,01,07,11,15,0.10
2019,01,07,11,16,0.00
2019,01,07,11,17,0.00
2019,01,07,11,18,0.20
2019,01,07,11,19,0.00
2019,01,07,11,20,1.50
2019,01,07,11,21,3.00
2019,01,07,11,22,0.20
2019,01,07,11,23,1.60
2019,01,07,11,24,0.20
2019,01,07,11,25,1.30
2019,01,07,11,26,1.30
2019,01,07,11,27,1.00
2019,01,07,11,28,0.20
2019,01,07,11,29,0.10
2019,01,07,11,30,0.10
2019,01,07,11,31,0.20
2019,01,07,11,32,0.00
2019,01,07,11,33,0.20
2019,01,07,11,34,0.10
2019,01,07,11,35,0.30
2019,01,07,11,36,0.10
2019,01,07,11,37,0.00
2019,01,07,11,38,0.00
2019,01,07,11,39,0.00
2019,01,07,11,40,0.00
2019,01,07,11,41,1.50
2019,01,07,11,42,2.70
2019,01,07,11,43,3.80
2019,01,07,11,44,0.60
2019,01,07,11,45,0.10
2019,01,07,11,46,1.20
2019,01,07,11,47,0.30
2019,01,07,11,48,1.00
2019,01,07,11,49,0.40
2019,01,07,11,50,0.60
2019,01,07,11,51,0.30
2019,01,07,11,52,0.00
2019,01,07,11,53,0.00
2019,01,07,11,54,0.30
2019,01,07,11,55,2.70
2019,01,07,11,56,2.20
2019,01,07,11,57,0.60
2019,01,07,11,58,0.20
2019,01,07,11,59,0.40
2019,01,07,12,00,1.90
2019,01,07,12,01,4.40
2019,01,07,12,02,2.80
2019,01,07,12,03,0.40
2019,01,07,12,04,0.90
2019,01,07,12,05,0.70
2019,01,07,12,06,0.60
2019,01,07,12,07,2.60
2019,01,07,12,08,0.40
2019,01,07,12,09,4.30
2019,01,07,12,10,3.10
2019,01,07,12,11,1.00
2019,01,07,12,12,3.00
2019,01,07,12,13,3.30
2019,01,07,12,14,1.90
2019,01,07,12,15,1.70
2019,01,07,12,16,1.40
2019,01,07,12,17,4.80
2019,01,07,12,18,3.60
2019,01,07,12,19,0.60
2019,01,07,12,20,4.70
2019,01,07,12,21,6.50
2019,01,07,12,22,1.30
2019,01,07,12,23,2.50
2019,01,07,12,24,5.40
2019,01,07,12,25,3.50
2019,01,07,12,26,4.10
2019,01,07,12,27,3.70
2019,01,07,12,28,2.90
2019,01,07,12,29,2.80
2019,01,07,12,30,5.50
2019,01,07,12,31,5.10
2019,01,07,12,32,4.30
2019,01,07,12,33,2.30
2019,01,07,12,34,0.10
2019,01,07,12,35,2.80
2019,01,07,12,36,1.90
2019,01,07,12,37,1.90
2019,01,07,12,38,0.90
2019,01,07,12,39,0.20
2019,01,07,12,40,1.90
2019,01,07,12,41,1.90
2019,01,07,12,42,4.30
2019,01,07,12,43,5.90
2019,01,07,12,44,3.20
2019,01,07,12,45,1.10
2019,01,07,12,46,2.20
2019,01,07,12,47,4.90
2019,01,07,12,48,0.80
2019,01,07,12,49,5.50
2019,01,07,12,50,3.60
2019,01,07,12,51,4.30
2019,01,07,12,52,2.90
2019,01,07,12,53,4.40
2019,01,07,12,54,3.50
2019,01,07,12,55,1.50
2019,01,07,12,56,1.30
2019,01,07,12,57,3.90
2019,01,07,12,58,1.70
2019,01,07,12,59,1.10
2019,01,07,13,00,1.40
2019,01,07,13,01,0.20
2019,01,07,13,02,1.90
2019,01,07,13,03,0.10
2019,01,07,13,04,0.60
2019,01,07,13,05,0.40
2019,01,07,13,06,3.10
2019,01,07,13,07,3.70
2019,01,07,13,08,1.10
2019,01,07,13,09,0.60
2019,01,07,13,10,0.50
2019,01,07,13,11,1.00
2019,01,07,13,12,0.10
2019,01,07,13,13,0.20
2019,01,07,13,14,2.40
2019,01,07,13,15,3.10
2019,01,07,13,16,3.80
2019,01,07,13,17,1.80
2019,01,07,13,18,2.70
2019,01,07,13,19,0.60
2019,01,07,13,20,0.60
2019,01,07,13,21,3.00
2019,01,07,13,22,4.70
2019,01,07,13,23,1.10
2019,01,07,13,24,2.50
2019,01,07,13,25,0.40
2019,01,07,13,26,0.30
2019,01,07,13,27,0.40
2019,01,07,13,28,2.20
2019,01,07,13,29,1.90
2019,01,07,13,30,2.20
2019,01,07,13,31,2.40
2019,01,07,13,32,0.60
2019,01,07,13,33,5.60
2019,01,07,13,34,4.60
2019,01,07,13,35,0.90
2019,01,07,13,36,3.40
2019,01,07,13,37,0.20
2019,01,07,13,38,2.10
2019,01,07,13,39,0.80
2019,01,07,13,40,0.30
2019,01,07,13,41,4.40
2019,01,07,13,42,5.10
2019,01,07,13,43,4.60
2019,01,07,13,44,5.20
2019,01,07,13,45,7.20
2019,01,07,13,46,6.20
2019,01,07,13,47,2.70
2019,01,07,13,48,1.10
2019,01,07,13,49,1.00
2019,01,07,13,50,3.00
2019,01,07,13,51,1.40
2019,01,07,13,52,1.40
2019,01,07,13,53,1.80
2019,01,07,13,54,1.70
2019,01,07,13,55,3.90
2019,01,07,13,56,1.60
2019,01,07,13,57,2.30
2019,01,07,13,58,2.40
2019,01,07,13,59,1.20
2019,01,07,14,00,5.50
2019,01,07,14,01,4.60
2019,01,07,14,02,6.80
2019,01,07,14,03,6.40
2019,01,07,14,04,6.30
2019,01,07,14,05,5.60
2019,01,07,14,06,1.90
2019,01,07,14,07,1.90
2019,01,07,14,08,1.10
2019,01,07,14,09,3.20
2019,01,07,14,10,2.70
2019,01,07,14,11,3.10
2019,01,07,14,12,2.10
2019,01,07,14,13,2.80
2019,01,07,14,14,2.70
2019,01,07,14,15,2.40
2019,01,07,14,16,0.00
2019,01,07,14,17,0.20
2019,01,07,14,18,2.00
2019,01,07,14,19,1.00
2019,01,07,14,20,2.60
2019,01,07,14,21,3.10
2019,01,07,14,22,4.70
2019,01,07,14,23,6.10
2019,01,07,14,24,5.20
2019,01,07,14,25,2.30
2019,01,07,14,26,4.50
2019,01,07,14,27,4.30
2019,01,07,14,28,5.10
2019,01,07,14,29,2.30
2019,01,07,14,30,1.00
2019,01,07,14,31,1.70
2019,01,07,14,32,4.80
2019,01,07,14,33,2.60
2019,01,07,14,34,0.60
2019,01,07,14,35,1.90
2019,01,07,14,36,1.40
2019,01,07,14,37,0.70
2019,01,07,14,38,1.50
2019,01,07,14,39,2.50
2019,01,07,14,40,3.50
2019,01,07,14,41,4.20
2019,01,07,14,42,4.20
2019,01,07,14,43,2.40
2019,01,07,14,44,3.80
2019,01,07,14,45,5.00
2019,01,07,14,46,4.80
2019,01,07,14,47,6.30
2019,01,07,14,48,4.30
2019,01,07,14,49,4.30
2019,01,07,14,50,2.20
2019,01,07,14,51,3.90
2019,01,07,14,52,1.70
2019,01,07,14,53,1.10
2019,01,07,14,54,4.00
2019,01,07,14,55,2.70
2019,01,07,14,56,2.80
2019,01,07,14,57,1.70
2019,01,07,14,58,1.30
2019,01,07,14,59,3.30
2019,01,07,15,00,0.80
2019,01,07,15,01,2.20
2019,01,07,15,02,3.70
2019,01,07,15,03,0.10
2019,01,07,15,04,0.20
2019,01,07,15,05,0.60
2019,01,07,15,06,0.50
2019,01,07,15,07,0.60
2019,01,07,15,08,0.00
2019,01,07,15,09,0.10
2019,01,07,15,10,1.20
2019,01,07,15,11,1.00
2019,01,07,15,12,1.40
2019,01,07,15,13,0.00
2019,01,07,15,14,3.00
2019,01,07,15,15,1.10
2019,01,07,15,16,0.10
2019,01,07,15,17,2.00
2019,01,07,15,18,3.20
2019,01,07,15,19,3.90
2019,01,07,15,20,2.60
2019,01,07,15,21,2.20
2019,01,07,15,22,1.50
2019,01,07,15,23,2.10
2019,01,07,15,24,2.30
2019,01,07,15,25,0.30
2019,01,07,15,26,1.30
2019,01,07,15,27,0.10
2019,01,07,15,28,0.50
2019,01,07,15,29,0.20
2019,01,07,15,30,0.10
2019,01,07,15,31,0.20
2019,01,07,15,32,1.70
2019,01,07,15,33,0.00
2019,01,07,15,34,1.10
2019,01,07,15,35,0.20
2019,01,07,15,36,0.00
2019,01,07,15,37,0.10
2019,01,07,15,38,1.50
2019,01,07,15,39,0.70
2019,01,07,15,40,0.10
2019,01,07,15,41,0.00
2019,01,07,15,42,0.00
2019,01,07,15,43,0.30
2019,01,07,15,44,1.30
2019,01,07,15,45,0.20
2019,01,07,15,46,0.10
2019,01,07,15,47,2.70
2019,01,07,15,48,0.50
2019,01,07,15,49,1.80
2019,01,07,15,50,1.20
2019,01,07,15,51,2.80
2019,01,07,15,52,3.50
2019,01,07,15,53,2.50
2019,01,07,15,54,3.20
2019,01,07,15,55,1.90
2019,01,07,15,56,2.60
2019,01,07,15,57,3.00
2019,01,07,15,58,2.50
2019,01,07,15,59,1.90
2019,01,07,16,00,3.10
2019,01,07,16,01,1.30
2019,01,07,16,02,2.00
2019,01,07,16,03,0.00
2019,01,07,16,04,0.20
2019,01,07,16,05,1.10
2019,01,07,16,06,0.10
2019,01,07,16,07,1.80
2019,01,07,16,08,4.50
2019,01,07,16,09,3.70
2019,01,07,16,10,3.00
2019,01,07,16,11,2.10
2019,01,07,16,12,3.30
2019,01,07,16,13,3.40
2019,01,07,16,14,3.20
2019,01,07,16,15,4.10
2019,01,07,16,16,3.10
2019,01,07,16,17,3.10
2019,01,07,16,18,3.50
2019,01,07,16,19,2.30
2019,01,07,16,20,2.30
2019,01,07,16,21,1.40
2019,01,07,16,22,2.00
2019,01,07,16,23,2.20
2019,01,07,16,24,2.30
2019,01,07,16,25,1.00
2019,01,07,16,26,2.30
2019,01,07,16,27,0.50
2019,01,07,16,28,1.20
2019,01,07,16,29,0.50
2019,01,07,16,30,1.20
2019,01,07,16,31,0.20
2019,01,07,16,32,1.40
2019,01,07,16,33,0.90
2019,01,07,16,34,1.50
2019,01,07,16,35,0.60
2019,01,07,16,36,0.00
2019,01,07,16,37,0.10
2019,01,07,16,38,0.00
2019,01,07,16,39,0.00
2019,01,07,16,40,0.00
2019,01,07,16,41,0.00
2019,01,07,16,42,0.00
2019,01,07,16,43,0.00
2019,01,07,16,44,0.00
2019,01,07,16,45,0.00
2019,01,07,16,46,0.00
2019,01,07,16,47,0.00
2019,01,07,16,48,0.00
2019,01,07,16,49,0.00
2019,01,07,16,50,0.00
2019,01,07,16,51,0.10
2019,01,07,16,52,0.00
2019,01,07,16,53,0.00
2019,01,07,16,54,0.00
2019,01,07,16,55,0.00
2019,01,07,16,56,0.00
2019,01,07,16,57,0.00
2019,01,07,16,58,0.00
2019,01,07,16,59,0.00
2019,01,07,17,00,0.10
2019,01,07,17,01,0.50
2019,01,07,17,02,0.00
2019,01,07,17,03,0.00
2019,01,07,17,04,0.00
2019,01,07,17,05,0.00
2019,01,07,17,06,0.00
2019,01,07,17,07,0.00
2019,01,07,17,08,0.00
2019,01,07,17,09,0.00
2019,01,07,17,10,0.00
2019,01,07,17,11,0.00
2019,01,07,17,12,0.00
2019,01,07,17,13,0.00
2019,01,07,17,14,0.00
2019,01,07,17,15,0.00
2019,01,07,17,16,0.00
2019,01,07,17,17,0.00
2019,01,07,17,18,0.00
2019,01,07,17,19,0.00
2019,01,07,17,20,0.00
2019,01,07,17,21,0.00
2019,01,07,17,22,0.00
2019,01,07,17,23,0.00
2019,01,07,17,24,0.10
2019,01,07,17,25,0.00
2019,01,07,17,26,0.00
2019,01,07,17,27,0.10
2019,01,07,17,28,0.00
2019,01,07,17,29,0.00
2019,01,07,17,30,0.00
2019,01,07,17,31,0.00
2019,01,07,17,32,0.00
2019,01,07,17,33,0.00
2019,01,07,17,34,0.00
2019,01,07,17,35,0.60
2019,01,07,17,36,0.10
2019,01,07,17,37,0.00
2019,01,07,17,38,0.00
2019,01,07,17,39,0.00
2019,01,07,17,40,1.00
2019,01,07,17,41,0.60
2019,01,07,17,42,0.70
2019,01,07,17,43,0.00
2019,01,07,17,44,0.00
2019,01,07,17,45,4.20
2019,01,07,17,46,3.70
2019,01,07,17,47,3.30
2019,01,07,17,48,2.10
2019,01,07,17,49,4.90
2019,01,07,17,50,2.80
2019,01,07,17,51,2.70
2019,01,07,17,52,2.70
2019,01,07,17,53,3.90
2019,01,07,17,54,3.10
2019,01,07,17,55,0.10
2019,01,07,17,56,2.20
2019,01,07,17,57,1.50
2019,01,07,17,58,1.40
2019,01,07,17,59,0.20
2019,01,07,18,00,0.20
2019,01,07,18,01,1.00
2019,01,07,18,02,0.10
2019,01,07,18,03,0.00
2019,01,07,18,04,0.10
2019,01,07,18,05,0.30
2019,01,07,18,06,0.20